.
WxDataArchive / Data Records for 2010-09-29
2010-09-28 September 2010 2010-09-30

Data Records for Wednesday, 29 September 2010

Time	Temp	Chill	HIndex	Humid	Dewpt	 Wind 	HiWind	WindDir	Rain 	Barom 
-----	----	-----	------	-----	-----	------	------	-------	-----	----- 
00:00	47.0	47.0	47.0	92	44.8	0	0	---	0.00	29.860 
00:05	46.8	46.8	46.8	92	44.6	0	0	---	0.00	29.860 
00:10	46.7	46.7	46.7	92	44.5	0	0	---	0.00	29.860 
00:15	46.5	46.5	46.5	92	44.3	0	0	---	0.00	29.857 
00:20	46.4	46.4	46.4	92	44.2	0	0	---	0.00	29.857 
00:25	46.4	46.4	46.4	92	44.2	0	0	---	0.00	29.857 
00:30	46.2	46.2	46.2	92	44.0	0	0	---	0.00	29.859 
00:35	46.1	46.1	46.1	92	43.9	0	0	---	0.00	29.859 
00:40	46.1	46.1	46.1	92	43.9	0	0	---	0.00	29.859 
00:45	46.0	46.0	46.0	93	44.1	0	0	---	0.00	29.860 
00:50	45.8	45.8	45.8	93	43.9	0	0	---	0.00	29.860 
00:55	45.8	45.8	45.8	93	43.9	0	0	---	0.00	29.860 
01:00	45.7	45.7	45.7	93	43.8	0	0	---	0.00	29.860 
01:05	45.5	45.5	45.5	93	43.6	0	0	---	0.00	29.860 
01:10	45.4	45.4	45.4	93	43.5	0	0	---	0.00	29.860 
01:15	45.4	45.4	45.4	93	43.5	0	0	---	0.00	29.861 
01:20	45.2	45.2	45.2	93	43.3	0	0	---	0.00	29.861 
01:25	45.2	45.2	45.2	93	43.3	0	0	---	0.00	29.861 
01:30	45.1	45.1	45.1	93	43.2	0	0	---	0.00	29.860 
01:35	45.1	45.1	45.1	93	43.2	0	0	---	0.00	29.860 
01:40	45.1	45.1	45.1	94	43.5	0	0	---	0.00	29.860 
01:45	45.1	45.1	45.1	94	43.5	0	0	---	0.00	29.859 
01:50	45.1	45.1	45.1	94	43.5	0	0	---	0.00	29.859 
01:55	45.1	45.1	45.1	94	43.5	0	0	---	0.00	29.859 
02:00	45.1	45.1	45.1	94	43.5	0	0	---	0.00	29.858 
02:05	44.9	44.9	44.9	94	43.3	0	0	---	0.00	29.858 
02:10	44.9	44.9	44.9	94	43.3	0	0	---	0.00	29.858 
02:15	44.8	44.8	44.8	94	43.2	0	0	---	0.00	29.859 
02:20	44.6	44.6	44.6	94	43.0	0	0	---	0.00	29.859 
02:25	44.5	44.5	44.5	94	42.9	0	0	---	0.00	29.859 
02:30	44.5	44.5	44.5	94	42.9	0	0	---	0.00	29.859 
02:35	44.3	44.3	44.3	94	42.7	0	0	---	0.00	29.859 
02:40	44.3	44.3	44.3	94	42.7	0	0	---	0.00	29.859 
02:45	44.3	44.3	44.3	94	42.7	0	0	---	0.00	29.859 
02:50	44.3	44.3	44.3	94	42.7	0	0	---	0.00	29.859 
02:55	44.2	44.2	44.2	94	42.6	0	0	---	0.00	29.859 
03:00	44.2	44.2	44.2	94	42.6	0	0	---	0.00	29.859 
03:05	44.1	44.1	44.1	94	42.5	0	0	---	0.00	29.859 
03:10	44.1	44.1	44.1	94	42.5	0	0	---	0.00	29.859 
03:15	44.1	44.1	44.1	94	42.5	0	0	---	0.00	29.854 
03:20	44.1	44.1	44.1	94	42.5	0	0	---	0.00	29.854 
03:25	43.9	43.9	43.9	94	42.3	0	0	---	0.00	29.854 
03:30	43.9	43.9	43.9	94	42.3	0	0	---	0.00	29.856 
03:35	43.8	43.8	43.8	94	42.2	0	0	---	0.00	29.856 
03:40	43.8	43.8	43.8	94	42.2	0	0	---	0.00	29.856 
03:45	43.6	43.6	43.6	94	42.0	0	0	---	0.00	29.858 
03:50	43.6	43.6	43.6	95	42.3	0	0	---	0.00	29.858 
03:55	43.5	43.5	43.5	95	42.2	0	0	---	0.00	29.858 
04:00	43.5	43.5	43.5	95	42.2	0	0	---	0.00	29.859 
04:05	43.5	43.5	43.5	95	42.2	0	0	---	0.00	29.859 
04:10	43.5	43.5	43.5	95	42.2	0	0	---	0.00	29.859 
04:15	43.5	43.5	43.5	95	42.2	0	0	---	0.00	29.860 
04:20	43.3	43.3	43.3	95	42.0	0	0	---	0.00	29.860 
04:25	43.3	43.3	43.3	95	42.0	0	0	---	0.00	29.860 
04:30	43.2	43.2	43.2	95	41.9	0	0	---	0.00	29.860 
04:35	43.2	43.2	43.2	95	41.9	0	0	---	0.00	29.860 
04:40	43.1	43.1	43.1	95	41.8	0	0	---	0.00	29.860 
04:45	43.1	43.1	43.1	95	41.8	0	0	---	0.00	29.862 
04:50	43.1	43.1	43.1	95	41.8	0	0	---	0.00	29.862 
04:55	42.9	42.9	42.9	95	41.6	0	0	---	0.00	29.862 
05:00	42.9	42.9	42.9	95	41.6	0	0	---	0.00	29.861 
05:05	42.8	42.8	42.8	95	41.5	0	0	---	0.00	29.861 
05:10	42.8	42.8	42.8	95	41.5	0	0	---	0.00	29.861 
05:15	42.6	42.6	42.6	95	41.3	0	0	---	0.00	29.868 
05:20	42.6	42.6	42.6	95	41.3	0	0	---	0.00	29.868 
05:25	42.6	42.6	42.6	95	41.3	0	0	---	0.00	29.868 
05:30	42.6	42.6	42.6	95	41.3	0	0	---	0.00	29.869 
05:35	42.6	42.6	42.6	95	41.3	0	0	---	0.00	29.869 
05:40	42.6	42.6	42.6	95	41.3	0	0	---	0.00	29.869 
05:45	42.6	42.6	42.6	95	41.3	0	0	---	0.00	29.862 
05:50	42.6	42.6	42.6	95	41.3	0	0	---	0.00	29.862 
05:55	42.5	42.5	42.5	95	41.2	0	0	---	0.00	29.862 
06:00	42.5	42.5	42.5	95	41.2	0	0	---	0.00	29.870 
06:05	42.5	42.5	42.5	95	41.2	0	0	---	0.00	29.870 
06:10	42.3	42.3	42.3	95	41.0	0	0	---	0.00	29.870 
06:15	42.3	42.3	42.3	95	41.0	0	0	---	0.00	29.876 
06:20	42.2	42.2	42.2	95	40.9	0	0	---	0.00	29.876 
06:25	42.2	42.2	42.2	95	40.9	0	0	---	0.00	29.876 
06:30	42.2	42.2	42.2	95	40.9	0	0	---	0.00	29.877 
06:35	42.1	42.1	42.1	95	40.8	0	0	---	0.00	29.877 
06:40	42.1	42.1	42.1	95	40.8	0	0	---	0.00	29.877 
06:45	42.1	42.1	42.1	95	40.8	0	0	---	0.00	29.878 
06:50	42.1	42.1	42.1	95	40.8	0	0	---	0.00	29.878 
06:55	41.9	41.9	41.9	95	40.6	0	0	---	0.00	29.878 
07:00	41.9	41.9	41.9	95	40.6	0	0	---	0.00	29.882 
07:05	41.9	41.9	41.9	95	40.6	0	0	---	0.00	29.882 
07:10	41.8	41.8	41.8	95	40.5	0	0	---	0.00	29.882 
07:15	41.8	41.8	41.8	95	40.5	0	0	---	0.00	29.894 
07:20	41.8	41.8	41.8	95	40.5	0	0	---	0.00	29.894 
07:25	41.8	41.8	41.8	95	40.5	0	0	---	0.00	29.894 
07:30	41.8	41.8	41.8	95	40.5	0	0	---	0.00	29.897 
07:35	41.6	41.6	41.6	95	40.3	0	0	---	0.00	29.897 
07:40	41.6	41.6	41.6	95	40.3	0	0	---	0.00	29.897 
07:45	41.6	41.6	41.6	96	40.5	0	0	---	0.00	29.898 
07:50	41.6	41.6	41.6	96	40.5	0	0	---	0.00	29.898 
07:55	41.8	41.8	41.8	96	40.7	0	0	---	0.00	29.898 
08:00	41.9	41.9	41.9	96	40.8	0	0	---	0.00	29.907 
08:05	41.9	41.9	41.9	96	40.8	0	0	---	0.00	29.907 
08:10	42.1	42.1	42.1	96	41.0	0	0	---	0.00	29.907 
08:15	42.2	42.2	42.2	96	41.1	0	0	---	0.00	29.914 
08:20	42.5	42.5	42.5	96	41.4	0	0	---	0.00	29.914 
08:25	42.8	42.8	42.8	96	41.7	0	0	---	0.00	29.914 
08:30	43.1	43.1	43.1	96	42.0	0	0	---	0.00	29.913 
08:35	43.6	43.6	43.6	96	42.5	0	0	---	0.00	29.913 
08:40	44.1	44.1	44.1	96	43.0	0	0	---	0.00	29.913 
08:45	44.5	44.5	44.5	96	43.4	0	0	---	0.00	29.915 
08:50	45.5	45.5	45.5	97	44.7	0	1	292	0.00	29.915 
08:55	46.2	46.2	46.2	96	45.1	0	0	---	0.00	29.915 
09:00	47.0	47.0	47.0	97	46.2	0	2	292	0.00	29.915 
09:05	47.4	47.4	47.4	96	46.3	0	1	90	0.00	29.915 
09:10	47.7	47.7	47.7	96	46.6	0	1	90	0.00	29.915 
09:15	48.0	48.0	48.0	96	46.9	0	1	90	0.00	29.923 
09:20	48.2	48.2	48.2	96	47.1	0	2	90	0.00	29.923 
09:25	48.2	48.2	48.2	96	47.1	0	1	90	0.00	29.923 
09:30	48.0	48.0	48.0	96	46.9	0	1	90	0.00	29.920 
09:35	48.2	48.2	48.2	96	47.1	0	0	---	0.00	29.920 
09:40	48.5	48.5	48.5	96	47.4	0	1	90	0.00	29.920 
09:45	48.9	48.9	48.9	96	47.8	0	1	90	0.00	29.920 
09:50	49.4	49.4	49.4	96	48.3	0	2	90	0.00	29.920 
09:55	49.6	49.6	49.6	96	48.5	1	3	90	0.00	29.920 
10:00	50.1	50.1	50.1	96	49.0	1	3	90	0.00	29.920 
10:05	50.4	50.4	50.4	96	49.3	0	2	90	0.00	29.920 
10:10	51.0	51.0	51.0	96	49.9	0	2	90	0.00	29.920 
10:15	51.7	51.7	51.7	95	50.3	1	3	90	0.00	29.923 
10:20	52.5	52.5	52.5	94	50.8	0	2	90	0.00	29.923 
10:25	53.3	53.3	53.3	93	51.3	0	3	90	0.00	29.923 
10:30	54.2	54.2	54.2	91	51.6	0	1	90	0.00	29.922 
10:35	55.4	55.4	55.4	88	51.9	0	1	90	0.00	29.922 
10:40	56.3	56.3	56.3	86	52.2	0	1	90	0.00	29.922 
10:45	57.0	57.0	57.0	82	51.6	1	2	90	0.00	29.916 
10:50	57.6	57.6	57.6	80	51.5	1	3	68	0.00	29.916 
10:55	58.3	58.3	58.3	78	51.5	1	3	68	0.00	29.916 
11:00	59.0	59.0	59.0	77	51.8	1	3	68	0.00	29.910 
11:05	59.5	59.5	59.5	73	50.8	1	4	68	0.00	29.910 
11:10	60.1	60.1	60.1	73	51.4	1	3	180	0.00	29.910 
11:15	61.0	61.0	61.0	71	51.5	1	4	90	0.00	29.914 
11:20	61.3	61.3	61.3	69	51.0	1	3	112	0.00	29.914 
11:25	62.0	62.0	62.0	71	52.5	1	3	112	0.00	29.914 
11:30	62.6	62.6	62.6	70	52.7	1	4	112	0.00	29.911 
11:35	62.6	62.6	62.6	68	51.9	2	4	90	0.00	29.911 
11:40	62.9	62.9	62.9	67	51.8	1	3	90	0.00	29.911 
11:45	63.2	63.2	63.2	64	50.8	2	4	90	0.00	29.914 
11:50	63.9	63.9	63.9	64	51.5	0	2	112	0.00	29.914 
11:55	64.7	64.7	64.7	62	51.4	1	5	90	0.00	29.914 
12:00	65.3	65.3	65.3	62	51.9	0	2	90	0.00	29.904 
12:05	66.1	66.1	66.1	59	51.3	0	2	90	0.00	29.904 
12:10	66.3	66.3	66.3	58	51.1	1	4	90	0.00	29.904 
12:15	66.6	66.6	66.6	62	53.2	0	2	90	0.00	29.900 
12:20	67.1	67.1	67.1	56	50.9	0	2	90	0.00	29.900 
12:25	67.4	67.4	67.4	55	50.7	1	3	90	0.00	29.900 
12:30	67.4	67.4	67.4	54	50.2	0	3	90	0.00	29.895 
12:35	67.8	67.8	67.8	54	50.5	1	3	90	0.00	29.895 
12:40	68.3	68.3	68.3	52	50.0	0	2	90	0.00	29.895 
12:45	68.6	68.6	68.6	50	49.2	1	3	90	0.00	29.887 
12:50	68.6	68.6	68.6	50	49.2	1	4	90	0.00	29.887 
12:55	68.8	68.8	68.8	51	49.9	0	2	90	0.00	29.887 
13:00	69.1	69.1	69.1	46	47.4	0	3	90	0.00	29.883 
13:05	69.6	69.6	69.6	43	46.1	0	1	90	0.00	29.883 
13:10	70.1	70.1	70.1	41	45.3	0	2	90	0.00	29.883 
13:15	70.4	70.4	70.4	43	46.8	0	1	90	0.00	29.882 
13:20	70.8	70.8	70.8	45	48.4	0	2	90	0.00	29.882 
13:25	71.1	71.1	71.1	43	47.5	1	4	90	0.00	29.882 
13:30	70.9	70.9	70.9	39	44.7	1	3	112	0.00	29.877 
13:35	70.8	70.8	70.8	43	47.2	1	3	112	0.00	29.877 
13:40	70.8	70.8	70.8	39	44.6	1	3	112	0.00	29.877 
13:45	70.9	70.9	70.9	39	44.7	0	2	112	0.00	29.868 
13:50	71.3	71.3	71.3	39	45.1	0	2	112	0.00	29.868 
13:55	71.5	71.5	71.5	36	43.1	1	4	270	0.00	29.868 
14:00	71.5	71.5	71.5	35	42.4	1	3	270	0.00	29.865 
14:05	71.6	71.6	71.6	34	41.7	1	3	270	0.00	29.865 
14:10	71.5	71.5	71.5	37	43.8	0	1	90	0.00	29.865 
14:15	71.6	71.6	71.6	38	44.6	0	3	248	0.00	29.858 
14:20	72.0	72.0	72.0	35	42.8	1	3	248	0.00	29.858 
14:25	72.1	72.1	72.1	32	40.6	0	3	248	0.00	29.858 
14:30	72.5	72.5	72.5	35	43.3	0	2	270	0.00	29.850 
14:35	72.8	72.8	72.8	34	42.8	0	3	270	0.00	29.850 
14:40	73.0	73.0	73.0	31	40.6	1	3	90	0.00	29.850 
14:45	73.0	73.0	73.0	32	41.4	1	3	90	0.00	29.843 
14:50	72.8	72.8	72.8	32	41.2	1	4	112	0.00	29.843 
14:55	72.8	72.8	72.8	33	42.0	1	4	90	0.00	29.843 
15:00	73.2	73.2	73.2	33	42.4	0	2	90	0.00	29.836 
15:05	73.5	73.5	73.5	30	40.2	1	3	292	0.00	29.836 
15:10	73.5	73.5	73.5	28	38.4	1	2	292	0.00	29.836 
15:15	73.3	73.3	73.3	27	37.3	1	3	338	0.00	29.834 
15:20	73.5	73.5	73.5	28	38.4	1	4	270	0.00	29.834 
15:25	73.5	73.5	73.5	27	37.5	0	2	270	0.00	29.834 
15:30	73.9	73.9	73.9	28	38.7	0	3	270	0.00	29.826 
15:35	73.9	73.9	73.9	28	38.7	0	2	270	0.00	29.826 
15:40	73.9	73.9	73.9	28	38.7	0	1	270	0.00	29.826 
15:45	74.2	74.2	74.2	28	39.0	0	2	270	0.00	29.820 
15:50	74.2	74.2	74.2	28	39.0	0	2	0	0.00	29.820 
15:55	74.2	74.2	74.2	26	37.1	0	2	0	0.00	29.820 
16:00	73.9	73.9	73.9	27	37.8	1	2	0	0.00	29.818 
16:05	73.9	73.9	73.9	27	37.8	0	1	0	0.00	29.818 
16:10	73.9	73.9	73.9	28	38.7	0	2	0	0.00	29.818 
16:15	73.9	73.9	73.9	26	36.8	1	2	270	0.00	29.819 
16:20	74.0	74.0	74.0	27	37.9	1	2	270	0.00	29.819 
16:25	73.9	73.9	73.9	28	38.7	0	1	270	0.00	29.819 
16:30	73.7	73.7	73.7	28	38.6	0	2	270	0.00	29.816 
16:35	73.5	73.5	73.5	28	38.4	0	1	270	0.00	29.816 
16:40	73.5	73.5	73.5	28	38.4	1	3	270	0.00	29.816 
16:45	73.5	73.5	73.5	28	38.4	0	1	270	0.00	29.816 
16:50	73.5	73.5	73.5	28	38.4	0	2	270	0.00	29.816 
16:55	73.5	73.5	73.5	28	38.4	0	1	270	0.00	29.816 
17:00	73.7	73.7	73.7	28	38.6	0	1	270	0.00	29.811 
17:05	73.7	73.7	73.7	28	38.6	0	1	270	0.00	29.811 
17:10	73.7	73.7	73.7	27	37.6	0	2	270	0.00	29.811 
17:15	73.9	73.9	73.9	28	38.7	0	1	270	0.00	29.810 
17:20	73.7	73.7	73.7	26	36.7	1	2	270	0.00	29.810 
17:25	73.7	73.7	73.7	27	37.6	0	1	270	0.00	29.810 
17:30	73.7	73.7	73.7	28	38.6	0	3	270	0.00	29.815 
17:35	73.7	73.7	73.7	27	37.6	0	3	270	0.00	29.815 
17:40	73.7	73.7	73.7	27	37.6	0	1	270	0.00	29.815 
17:45	73.7	73.7	73.7	27	37.6	0	1	270	0.00	29.813 
17:50	73.7	73.7	73.7	28	38.6	0	0	---	0.00	29.813 
17:55	73.7	73.7	73.7	27	37.6	0	1	270	0.00	29.813 
18:00	73.5	73.5	73.5	27	37.5	0	0	---	0.00	29.818 
18:05	73.5	73.5	73.5	28	38.4	0	0	---	0.00	29.818 
18:10	73.2	73.2	73.2	27	37.2	0	1	270	0.00	29.818 
18:15	73.0	73.0	73.0	28	38.0	0	0	---	0.00	29.815 
18:20	73.0	73.0	73.0	27	37.0	0	1	270	0.00	29.815 
18:25	72.8	72.8	72.8	27	36.9	0	0	---	0.00	29.815 
18:30	72.7	72.7	72.7	30	39.5	0	0	---	0.00	29.815 
18:35	72.5	72.5	72.5	29	38.4	0	0	---	0.00	29.815 
18:40	72.1	72.1	72.1	30	38.9	0	0	---	0.00	29.815 
18:45	71.8	71.8	71.8	31	39.5	0	0	---	0.00	29.814 
18:50	71.5	71.5	71.5	36	43.1	0	0	---	0.00	29.814 
18:55	70.8	70.8	70.8	36	42.5	0	0	---	0.00	29.814 
19:00	70.3	70.3	70.3	37	42.8	0	0	---	0.00	29.813 
19:05	69.8	69.8	69.8	38	43.0	0	0	---	0.00	29.813 
19:10	69.1	69.1	69.1	40	43.8	0	0	---	0.00	29.813 
19:15	68.6	68.6	68.6	40	43.3	0	0	---	0.00	29.822 
19:20	68.1	68.1	68.1	40	42.9	0	0	---	0.00	29.822 
19:25	67.4	67.4	67.4	45	45.3	0	0	---	0.00	29.822 
19:30	66.8	66.8	66.8	46	45.3	0	0	---	0.00	29.814 
19:35	66.1	66.1	66.1	50	46.9	0	0	---	0.00	29.814 
19:40	65.5	65.5	65.5	50	46.4	0	0	---	0.00	29.814 
19:45	64.7	64.7	64.7	49	45.1	0	0	---	0.00	29.824 
19:50	64.0	64.0	64.0	52	46.0	0	0	---	0.00	29.824 
19:55	63.4	63.4	63.4	54	46.5	0	0	---	0.00	29.824 
20:00	62.9	62.9	62.9	54	46.0	0	0	---	0.00	29.829 
20:05	62.3	62.3	62.3	57	46.9	0	0	---	0.00	29.829 
20:10	61.8	61.8	61.8	57	46.4	0	0	---	0.00	29.829 
20:15	61.3	61.3	61.3	58	46.4	0	0	---	0.00	29.827 
20:20	60.9	60.9	60.9	59	46.5	0	0	---	0.00	29.827 
20:25	60.4	60.4	60.4	59	46.0	0	0	---	0.00	29.827 
20:30	59.9	59.9	59.9	61	46.4	0	0	---	0.00	29.828 
20:35	59.5	59.5	59.5	62	46.5	0	0	---	0.00	29.828 
20:40	59.2	59.2	59.2	64	47.0	0	0	---	0.00	29.828 
20:45	58.9	58.9	58.9	65	47.2	0	0	---	0.00	29.832 
20:50	58.6	58.6	58.6	66	47.3	0	0	---	0.00	29.832 
20:55	58.3	58.3	58.3	66	47.0	0	0	---	0.00	29.832 
21:00	58.0	58.0	58.0	67	47.1	0	0	---	0.00	29.833 
21:05	57.6	57.6	57.6	67	46.7	0	0	---	0.00	29.833 
21:10	57.2	57.2	57.2	69	47.1	0	0	---	0.00	29.833 
21:15	56.9	56.9	56.9	69	46.8	0	0	---	0.00	29.830 
21:20	56.7	56.7	56.7	70	47.0	0	2	270	0.00	29.830 
21:25	56.5	56.5	56.5	71	47.2	0	2	270	0.00	29.830 
21:30	56.2	56.2	56.2	72	47.3	0	0	---	0.00	29.831 
21:35	55.9	55.9	55.9	73	47.4	0	0	---	0.00	29.831 
21:40	55.7	55.7	55.7	73	47.2	0	0	---	0.00	29.831 
21:45	55.4	55.4	55.4	74	47.3	0	0	---	0.00	29.829 
21:50	55.3	55.3	55.3	74	47.2	0	0	---	0.00	29.829 
21:55	55.1	55.1	55.1	74	47.0	0	0	---	0.00	29.829 
22:00	54.8	54.8	54.8	75	47.0	0	0	---	0.00	29.830 
22:05	54.7	54.7	54.7	75	46.9	0	0	---	0.00	29.830 
22:10	54.5	54.5	54.5	76	47.1	0	0	---	0.00	29.830 
22:15	54.4	54.4	54.4	76	47.0	0	0	---	0.00	29.822 
22:20	54.2	54.2	54.2	77	47.1	0	0	---	0.00	29.822 
22:25	54.1	54.1	54.1	78	47.4	0	0	---	0.00	29.822 
22:30	53.9	53.9	53.9	78	47.2	0	0	---	0.00	29.822 
22:35	53.8	53.8	53.8	78	47.1	0	0	---	0.00	29.822 
22:40	53.6	53.6	53.6	79	47.2	0	0	---	0.00	29.822 
22:45	53.5	53.5	53.5	78	46.8	0	0	---	0.00	29.822 
22:50	53.3	53.3	53.3	78	46.6	0	0	---	0.00	29.822 
22:55	53.2	53.2	53.2	79	46.9	0	0	---	0.00	29.822 
23:00	53.1	53.1	53.1	79	46.8	0	0	---	0.00	29.823 
23:05	52.9	52.9	52.9	79	46.6	0	0	---	0.00	29.823 
23:10	52.6	52.6	52.6	79	46.3	0	0	---	0.00	29.823 
23:15	52.5	52.5	52.5	79	46.2	0	0	---	0.00	29.817 
23:20	52.3	52.3	52.3	80	46.3	0	0	---	0.00	29.817 
23:25	52.3	52.3	52.3	81	46.6	0	0	---	0.00	29.817 
23:30	52.2	52.2	52.2	81	46.5	0	0	---	0.00	29.819 
23:35	52.0	52.0	52.0	81	46.4	0	0	---	0.00	29.819 
23:40	51.9	51.9	51.9	81	46.3	0	0	---	0.00	29.819 
23:45	51.7	51.7	51.7	81	46.1	0	0	---	0.00	29.815 
23:50	51.6	51.6	51.6	81	46.0	0	0	---	0.00	29.815 
23:55	51.6	51.6	51.6	81	46.0	0	0	---	0.00	29.815 

CoCoRaHS
IN-AL-39
A2 Web Hosting
Creative Commons License
GoDaddy
search engine by freefind advanced

loaded 2018-11-15 05:17:08 • last modified 2010-11-18 10:43:29
Privacy PolicyDisclaimer
• wx.awcolley.com is powered by PmWiki v.2002016 •
• all content (unless otherwise noted) © 2018 A W Colley